Llano, TX

6:15 PM CST on February 27, 2017 (GMT -0600)
Llano

Weather History for KAQO - February, 2014

Change the Weather History Date:

Wednesday, February 5, 2014

  Actual Average (KBMQ) Record (KBMQ)
Temperature  
Mean Temperature 34 °F -  
Max Temperature 41 °F 58 °F 77 °F (2006)
Min Temperature 28 °F 39 °F 19 °F (2011)
Degree Days  
Heating Degree Days 30    
Moisture  
Dew Point 23 °F    
Average Humidity 65    
Maximum Humidity 87    
Minimum Humidity 48    
Precipitation  
Precipitation 0.00 in - - ()
Sea Level Pressure  
Sea Level Pressure 30.40 in    
Wind  
Wind Speed 8 mph (NNE)    
Max Wind Speed 17 mph    
Max Gust Speed 23 mph    
Visibility 10 miles    
Events      
Averages and records for this station are not official NWS values.
T = Trace of Precipitation, MM = Missing Value Source: NWS Daily Summary

Daily Weather History Graph

Daily Weather History Graph

Search for Another Location

Airport or City:

Trip Planner

Search our weather history database for the weather conditions in past years. The results will help you decide how hot, cold, wet, or windy it might be!

Date:

Astronomy

Feb. 05, 2014 Rise Set
Actual Time 7:23 AM CST 6:14 PM CST
Civil Twilight 6:58 AM CST 6:39 PM CST
Nautical Twilight 6:29 AM CST 7:07 PM CST
Astronomical Twilight 6:01 AM CST 7:36 PM CST
Moon 11:07 AM CST (2/5) No Moon Set
Length of Visible Light 11h 40m
Length of Day
10h 50m
Waxing Crescent, 39% of the Moon is Illuminated
Feb 5
Waxing Crescent
Feb 6
First Quarter
Feb 14
Full
Feb 22
Last Quarter
Mar 1
New

Hourly Weather History & Observations

Time (CST) Temp. Windchill Dew Point Humidity Pressure Visibility Wind Dir Wind Speed Gust Speed Precip Events Conditions
12:15 AM 41.0 °F - 35.6 °F 81% 30.17 in 10.0 mi Calm Calm - N/A   Clear
12:35 AM 39.2 °F 37.0 °F 35.6 °F 87% 30.18 in 10.0 mi NNE 3.5 mph - N/A   Clear
12:55 AM 41.0 °F - 35.6 °F 81% 30.18 in 10.0 mi Calm Calm - N/A   Clear
1:15 AM 41.0 °F 38.0 °F 35.6 °F 81% 30.19 in 10.0 mi North 4.6 mph - N/A   Clear
1:35 AM 39.2 °F 35.9 °F 35.6 °F 87% 30.20 in 10.0 mi North 4.6 mph - N/A   Clear
1:55 AM 41.0 °F - 33.8 °F 76% 30.21 in 10.0 mi Calm Calm - N/A   Clear
2:15 AM 39.2 °F 35.9 °F 33.8 °F 81% 30.22 in 10.0 mi NNE 4.6 mph - N/A   Clear
2:35 AM 39.2 °F 33.0 °F 32.0 °F 75% 30.23 in 10.0 mi North 9.2 mph - N/A   Clear
2:55 AM 39.2 °F 32.5 °F 32.0 °F 75% 30.22 in 10.0 mi NNE 10.4 mph - N/A   Clear
3:15 AM 39.2 °F 33.6 °F 32.0 °F 75% 30.23 in 10.0 mi NNE 8.1 mph - N/A   Clear
3:35 AM 37.4 °F 32.8 °F 32.0 °F 81% 30.24 in 10.0 mi NNE 5.8 mph - N/A   Clear
3:55 AM 37.4 °F 29.8 °F 32.0 °F 81% 30.25 in 10.0 mi North 11.5 mph - N/A   Clear
4:15 AM 37.4 °F 29.8 °F 32.0 °F 81% 30.26 in 10.0 mi North 11.5 mph - N/A   Clear
4:35 AM 35.6 °F 27.1 °F 28.4 °F 75% 30.27 in 10.0 mi North 12.7 mph 19.6 mph N/A   Clear
4:55 AM 35.6 °F 28.6 °F 28.4 °F 75% 30.30 in 10.0 mi North 9.2 mph - N/A   Mostly Cloudy
5:15 AM 35.6 °F 29.2 °F 30.2 °F 81% 30.31 in 10.0 mi North 8.1 mph - N/A   Overcast
5:35 AM 33.8 °F 25.3 °F 28.4 °F 81% 30.34 in 10.0 mi North 11.5 mph - N/A   Overcast
5:55 AM 33.8 °F 27.7 °F 26.6 °F 75% 30.33 in 10.0 mi NNE 6.9 mph - N/A   Scattered Clouds
6:15 AM 32.0 °F 26.4 °F 26.6 °F 80% 30.36 in 10.0 mi North 5.8 mph - N/A   Clear
6:35 AM 33.8 °F 28.6 °F 26.6 °F 75% 30.38 in 10.0 mi North 5.8 mph - N/A   Mostly Cloudy
6:55 AM 33.8 °F 24.8 °F 26.6 °F 75% 30.39 in 10.0 mi North 12.7 mph - N/A   Overcast
7:15 AM 32.0 °F 23.6 °F 26.6 °F 80% 30.41 in 10.0 mi North 10.4 mph - N/A   Overcast
7:35 AM 32.0 °F 23.0 °F 26.6 °F 80% 30.43 in 10.0 mi North 11.5 mph - N/A   Overcast
7:55 AM 32.0 °F 23.0 °F 24.8 °F 75% 30.44 in 10.0 mi NNE 11.5 mph - N/A   Overcast
8:15 AM 32.0 °F 23.6 °F 24.8 °F 75% 30.44 in 10.0 mi NNE 10.4 mph 16.1 mph N/A   Overcast
8:35 AM 32.0 °F 21.2 °F 24.8 °F 75% 30.46 in 10.0 mi North 16.1 mph 19.6 mph N/A   Overcast
8:55 AM 32.0 °F 22.1 °F 23.0 °F 69% 30.48 in 10.0 mi North 13.8 mph - N/A   Mostly Cloudy
9:15 AM 32.0 °F 22.5 °F 23.0 °F 69% 30.48 in 10.0 mi North 12.7 mph - N/A   Scattered Clouds
9:35 AM 32.0 °F 23.6 °F 23.0 °F 69% 30.49 in 10.0 mi North 10.4 mph 16.1 mph N/A   Partly Cloudy
9:55 AM 32.0 °F 22.1 °F 23.0 °F 69% 30.50 in 10.0 mi NNE 13.8 mph - N/A   Scattered Clouds
10:15 AM 32.0 °F 22.5 °F 23.0 °F 69% 30.51 in 10.0 mi North 12.7 mph 20.7 mph N/A   Mostly Cloudy
10:35 AM 32.0 °F 24.2 °F 21.2 °F 64% 30.52 in 10.0 mi NNE 9.2 mph - N/A   Overcast
10:55 AM 33.8 °F 27.0 °F 23.0 °F 65% 30.51 in 10.0 mi North 8.1 mph - N/A   Overcast
11:15 AM 33.8 °F 24.3 °F 23.0 °F 65% 30.51 in 10.0 mi North 13.8 mph - N/A   Overcast
11:35 AM 33.8 °F 27.0 °F 23.0 °F 65% 30.50 in 10.0 mi North 8.1 mph - N/A   Mostly Cloudy
11:55 AM 35.6 °F 27.5 °F 23.0 °F 60% 30.49 in 10.0 mi North 11.5 mph 19.6 mph N/A   Scattered Clouds
12:15 PM 35.6 °F 27.1 °F 23.0 °F 60% 30.48 in 10.0 mi North 12.7 mph - N/A   Clear
12:35 PM 35.6 °F 29.2 °F 21.2 °F 56% 30.46 in 10.0 mi North 8.1 mph 17.3 mph N/A   Clear
12:55 PM 37.4 °F 29.8 °F 21.2 °F 52% 30.44 in 10.0 mi NE 11.5 mph 19.6 mph N/A   Clear
1:15 PM 37.4 °F 28.5 °F 23.0 °F 56% 30.43 in 10.0 mi North 15.0 mph 23.0 mph N/A   Clear
1:35 PM 37.4 °F 29.8 °F 21.2 °F 52% 30.42 in 10.0 mi NNE 11.5 mph 17.3 mph N/A   Clear
1:55 PM 39.2 °F 33.6 °F 21.2 °F 49% 30.40 in 10.0 mi NNE 8.1 mph - N/A   Clear
2:15 PM 39.2 °F 31.2 °F 21.2 °F 49% 30.39 in 10.0 mi NNE 13.8 mph 18.4 mph N/A   Partly Cloudy
2:35 PM 39.2 °F 30.2 °F 21.2 °F 49% 30.41 in 10.0 mi NE 17.3 mph - N/A   Partly Cloudy
2:55 PM 37.4 °F 30.3 °F 21.2 °F 52% 30.41 in 10.0 mi NE 10.4 mph 18.4 mph N/A   Clear
3:15 PM 37.4 °F 29.3 °F 21.2 °F 52% 30.40 in 10.0 mi North 12.7 mph 17.3 mph N/A   Clear
3:35 PM 37.4 °F 29.8 °F 19.4 °F 48% 30.40 in 10.0 mi NNE 11.5 mph 18.4 mph N/A   Clear
3:55 PM 35.6 °F 27.1 °F 19.4 °F 52% 30.41 in 10.0 mi NNE 12.7 mph 20.7 mph N/A   Clear
4:15 PM 35.6 °F 26.6 °F 19.4 °F 52% 30.40 in 10.0 mi NNE 13.8 mph 21.9 mph N/A   Clear
4:35 PM 35.6 °F 27.5 °F 19.4 °F 52% 30.40 in 10.0 mi NNE 11.5 mph 18.4 mph N/A   Clear
4:55 PM 35.6 °F 28.6 °F 19.4 °F 52% 30.41 in 10.0 mi NNE 9.2 mph 20.7 mph N/A   Clear
5:15 PM 33.8 °F 27.0 °F 17.6 °F 52% 30.41 in 10.0 mi NNE 8.1 mph - N/A   Clear
5:35 PM 32.0 °F 23.6 °F 17.6 °F 55% 30.42 in 10.0 mi North 10.4 mph - N/A   Clear
5:55 PM 32.0 °F 24.2 °F 17.6 °F 55% 30.42 in 10.0 mi NNE 9.2 mph - N/A   Clear
6:15 PM 32.0 °F 24.8 °F 17.6 °F 55% 30.43 in 10.0 mi NE 8.1 mph - N/A   Clear
6:35 PM 32.0 °F 23.6 °F 17.6 °F 55% 30.43 in 10.0 mi NNE 10.4 mph - N/A   Clear
6:55 PM 32.0 °F 22.1 °F 17.6 °F 55% 30.44 in 10.0 mi NNE 13.8 mph - N/A   Clear
7:15 PM 30.2 °F 22.6 °F 17.6 °F 60% 30.43 in 10.0 mi NNE 8.1 mph - N/A   Clear
7:35 PM 30.2 °F 21.9 °F 17.6 °F 60% 30.45 in 10.0 mi NNE 9.2 mph - N/A   Clear
7:55 PM 30.2 °F 23.4 °F 17.6 °F 60% 30.46 in 10.0 mi NNE 6.9 mph - N/A   Clear
8:15 PM 30.2 °F 21.9 °F 15.8 °F 55% 30.47 in 10.0 mi North 9.2 mph - N/A   Clear
8:35 PM 30.2 °F 21.9 °F 17.6 °F 60% 30.48 in 10.0 mi North 9.2 mph - N/A   Clear
8:55 PM 30.2 °F 21.9 °F 17.6 °F 60% 30.48 in 10.0 mi NNE 9.2 mph - N/A   Partly Cloudy
9:15 PM 30.2 °F 24.3 °F 15.8 °F 55% 30.48 in 10.0 mi NNE 5.8 mph - N/A   Partly Cloudy
9:35 PM 28.4 °F 21.2 °F 15.8 °F 59% 30.48 in 10.0 mi NNE 6.9 mph - N/A   Clear
9:55 PM 28.4 °F 21.2 °F 15.8 °F 59% 30.49 in 10.0 mi NNE 6.9 mph - N/A   Clear
10:15 PM 28.4 °F 20.4 °F 15.8 °F 59% 30.50 in 10.0 mi North 8.1 mph - N/A   Partly Cloudy
10:35 PM 28.4 °F 21.2 °F 15.8 °F 59% 30.51 in 10.0 mi North 6.9 mph - N/A   Scattered Clouds
10:55 PM 28.4 °F 21.2 °F 15.8 °F 59% 30.50 in 10.0 mi NNE 6.9 mph - N/A   Mostly Cloudy
11:15 PM 28.4 °F 19.7 °F 15.8 °F 59% 30.49 in 10.0 mi North 9.2 mph - N/A   Partly Cloudy
11:35 PM 28.4 °F 22.2 °F 15.8 °F 59% 30.49 in 10.0 mi NNE 5.8 mph - N/A   Mostly Cloudy
11:55 PM 28.4 °F 19.1 °F 15.8 °F 59% 30.49 in 10.0 mi NNE 10.4 mph - N/A   Overcast